Regional Weather Roundup
Issued by NWS

Home | Current Version | Previous Version | Graphics & Text | Print | Product List | Glossary On
Versions: 1 2 3 4 5 6 7 8 9 10 11 12 13 14 15 16 17 18 19 20 21 22 23 24 25 26 27 28 29 30 31 32 33 34 35 36 37 38 39 40 41 42 43 44 45 46 47 48 49 50
000
ASUS43 KFSD 211010
RWRSD

WEATHER ROUNDUP FOR SOUTH DAKOTA
NATIONAL WEATHER SERVICE SIOUX FALLS SD
500 AM CDT TUE APR 21 2015

NOTE: "FAIR" INDICATES FEW OR NO CLOUDS BELOW 12,000 FEET WITH NO
SIGNIFICANT WEATHER AND/OR OBSTRUCTIONS TO VISIBILITY.


SDZ001>005-009-010-012>017-211100-
NORTHWEST AND NORTH CENTRAL SOUTH DAKOTA

CITY           SKY/WX    TMP DP  RH WIND       PRES   REMARKS
BUFFALO          N/A     37  23  56 W13       29.72F
FAITH            N/A     34  21  59 W8        29.78S WCI  27
MOBRIDGE       CLOUDY    33  21  61 NW7       29.78R WCI  27
$$

SDZ012>016-024>037-041>051-057-063-072>074-211100-
SOUTHWEST AND SOUTH CENTRAL SOUTH DAKOTA

CITY           SKY/WX    TMP DP  RH WIND       PRES   REMARKS
RAPID CTY ARPT CLOUDY    34  22  61 S3        29.81F
PIERRE         CLEAR     33  18  53 W12       29.78S WCI  24
CUSTER         MOCLDY    30  17  58 W9        29.84F WCI  22
ELLSWORTH AFB  MOCLDY    35  22  60 SW9       29.78F WCI  27
PHILIP         CLEAR     30  32 100 W8        29.80F WCI  22
PINE RIDGE     CLEAR     28  21  75 W7        29.86F WCI  21
SPEARFISH      FAIR      45  18  33 SW15G26   29.79F
WINNER         FAIR      36  20  52 W12       29.80F
$$

SDZ004>011-016>023-039-040-211100-
NORTHEAST SOUTH DAKOTA

CITY           SKY/WX    TMP DP  RH WIND       PRES   REMARKS
ABERDEEN       CLOUDY    33  24  69 NW10      29.77S WCI  25
WATERTOWN      PTCLDY    32  25  75 NW18      29.70R WCI  20
BROOKINGS      CLEAR     30  21  69 NW14      29.71S WCI  20
SISSETON         N/A     32  25  75 NW22G28   29.68R WCI  19
$$

SDZ017-020-022-023-036>040-048>070-211100-
SOUTHEAST SOUTH DAKOTA

CITY           SKY/WX    TMP DP  RH WIND       PRES   REMARKS
SIOUX FALLS    CLEAR     31  18  58 W9        29.72S WCI  23
HURON          CLOUDY    32  17  54 NW9       29.77R WCI  24
CHAMBERLAIN    CLEAR     31  18  57 W12       29.79F WCI  22
MITCHELL       CLEAR     31  12  45 W12       29.77S WCI  22
YANKTON        CLEAR     37  16  41 W15       29.77F
$$

ABBREVIATIONS USED IN REMARKS
   TC - TEMPERATURE IN CELSIUS
  WCI - WIND CHILL INDEX
   HX - HEAT INDEX
  VSB - VISIBILITY




USA.gov is the U.S. government's official web portal to all federal, state and local government web resources and services.